Back to catalog

STARLINK-36959

AliveCommunicationsVLEO
NORAD 68060·PAYLOAD·🇺🇸 United States

Launched Mar 2, 2026 from Vandenberg Space Force Base

Loading…

Next Passes (next 24 hours)

TLE

FreshSource: CelesTrak SupGP

Epoch: Sep 14, 2026, 16:10 UTC

1 68060C 26041W   26257.67409722 -.00020119  00000+0 -59463-3 0  2573
2 68060  53.1576 246.9069 0001576  87.3392 332.0561 15.34389419    14

Track STARLINK-36959 in real time with AllMySat

Download on the App Store